| time (UTC) | temp F | wind direction | speed MPH | gust MPH | rain 1hr in | rain 24hr in | rain mn in | humidity % | barometer mb |
| 20260503232451 | 76 | 149 | 1.0 | 2.0 | 0.00 | 0.00 | 0.00 | 47 | 1021.6 |
| 20260503231944 | 77 | 220 | 4.0 | 5.0 | 0.00 | 0.00 | 0.00 | 46 | 1021.9 |
| 20260503231441 | 77 | 153 | 1.0 | 2.0 | 0.00 | 0.00 | 0.00 | 46 | 1021.7 |
| 20260503230937 | 78 | 97 | 3.0 | 5.0 | 0.00 | 0.00 | 0.00 | 46 | 1021.7 |
| 20260503230434 | 78 | 147 | 1.0 | 1.0 | 0.00 | 0.00 | 0.00 | 46 | 1022.0 |
| 20260503225932 | 78 | 129 | 2.0 | 2.0 | 0.00 | 0.00 | 0.00 | 45 | 1022.0 |
| 20260503225428 | 78 | 164 | 3.0 | 5.0 | 0.00 | 0.00 | 0.00 | 45 | 1021.9 |
| 20260503224924 | 78 | 180 | 1.0 | 1.0 | 0.00 | 0.00 | 0.00 | 47 | 1021.9 |
| 20260503224421 | 78 | 152 | 1.0 | 2.0 | 0.00 | 0.00 | 0.00 | 47 | 1022.1 |
| 20260503223919 | 78 | 122 | 0.0 | 1.0 | 0.00 | 0.00 | 0.00 | 46 | 1022.1 |
| 20260503223416 | 78 | 175 | 2.0 | 2.0 | 0.00 | 0.00 | 0.00 | 45 | 1022.2 |
| 20260503222911 | 78 | 143 | 1.0 | 2.0 | 0.00 | 0.00 | 0.00 | 46 | 1022.1 |
| 20260503222410 | 78 | 179 | 3.0 | 3.0 | 0.00 | 0.00 | 0.00 | 48 | 1022.2 |
| 20260503221908 | 79 | 203 | 2.0 | 3.0 | 0.00 | 0.00 | 0.00 | 43 | 1022.5 |
| 20260503221406 | 80 | 210 | 3.0 | 3.0 | 0.00 | 0.00 | 0.00 | 44 | 1022.2 |
| 20260503220902 | 79 | 100 | 1.0 | 2.0 | 0.00 | 0.00 | 0.00 | 43 | 1022.3 |
| 20260503220359 | 79 | 138 | 2.0 | 2.0 | 0.00 | 0.00 | 0.00 | 41 | 1022.3 |
| 20260503215856 | 79 | 165 | 2.0 | 2.0 | 0.00 | 0.00 | 0.00 | 42 | 1022.2 |
| 20260503215353 | 80 | 150 | 3.0 | 3.0 | 0.00 | 0.00 | 0.00 | 42 | 1022.5 |
| 20260503214850 | 80 | 82 | 1.0 | 2.0 | 0.00 | 0.00 | 0.00 | 42 | 1022.6 |
| 20260503214347 | 80 | 81 | 2.0 | 2.0 | 0.00 | 0.00 | 0.00 | 41 | 1022.5 |
| 20260503213845 | 81 | 89 | 5.0 | 6.0 | 0.00 | 0.00 | 0.00 | 38 | 1022.5 |
| 20260503213342 | 82 | 167 | 4.0 | 5.0 | 0.00 | 0.00 | 0.00 | 38 | 1022.7 |
| 20260503212839 | 81 | 209 | 0.0 | 1.0 | 0.00 | 0.00 | 0.00 | 40 | 1022.8 |
| 20260503212337 | 80 | 240 | 0.0 | 1.0 | 0.00 | 0.00 | 0.00 | 39 | 1022.8 |
| 20260503211834 | 80 | 86 | 2.0 | 3.0 | 0.00 | 0.00 | 0.00 | 42 | 1022.8 |
| 20260503211331 | 80 | 176 | 0.0 | 0.0 | 0.00 | 0.00 | 0.00 | 43 | 1022.9 |
| 20260503210826 | 80 | 148 | 1.0 | 2.0 | 0.00 | 0.00 | 0.00 | 41 | 1023.0 |
| 20260503210323 | 80 | 334 | 3.0 | 3.0 | 0.00 | 0.00 | 0.00 | 40 | 1023.1 |
| 20260503205818 | 80 | 29 | 3.0 | 3.0 | 0.00 | 0.00 | 0.00 | 40 | 1023.1 |
| 20260503205315 | 79 | 144 | 0.0 | 0.0 | 0.00 | 0.00 | 0.00 | 40 | 1023.3 |
| 20260503204811 | 79 | 87 | 5.0 | 7.0 | 0.00 | 0.00 | 0.00 | 40 | 1023.6 |
| 20260503204309 | 78 | 77 | 3.0 | 6.0 | 0.00 | 0.00 | 0.00 | 39 | 1023.5 |
| 20260503203806 | 76 | 94 | 3.0 | 3.0 | 0.00 | 0.00 | 0.00 | 41 | 1023.8 |
| 20260503203303 | 77 | 117 | 2.0 | 2.0 | 0.00 | 0.00 | 0.00 | 42 | 1023.7 |
| 20260503202800 | 77 | 181 | 1.0 | 1.0 | 0.00 | 0.00 | 0.00 | 39 | 1023.7 |
| 20260503202258 | 80 | 109 | 6.0 | 8.0 | 0.00 | 0.00 | 0.00 | 38 | 1023.9 |
| 20260503201756 | 79 | 168 | 1.0 | 1.0 | 0.00 | 0.00 | 0.00 | 37 | 1024.1 |
| 20260503201253 | 80 | 71 | 2.0 | 3.0 | 0.00 | 0.00 | 0.00 | 39 | 1024.0 |
| 20260503200750 | 80 | 99 | 1.0 | 2.0 | 0.00 | 0.00 | 0.00 | 39 | 1024.0 |
| 20260503200246 | 80 | 38 | 2.0 | 2.0 | 0.00 | 0.00 | 0.00 | 40 | 1024.2 |
| 20260503195743 | 80 | 120 | 2.0 | 2.0 | 0.00 | 0.00 | 0.00 | 40 | 1024.2 |
| 20260503195240 | 79 | 71 | 4.0 | 6.0 | 0.00 | 0.00 | 0.00 | 42 | 1024.3 |
| 20260503194738 | 80 | 96 | 3.0 | 3.0 | 0.00 | 0.00 | 0.00 | 40 | 1024.7 |
| 20260503194233 | 81 | 60 | 2.0 | 3.0 | 0.00 | 0.00 | 0.00 | 39 | 1024.6 |
| 20260503193729 | 82 | 339 | 3.0 | 3.0 | 0.00 | 0.00 | 0.00 | 38 | 1024.8 |
| 20260503193226 | 81 | 77 | 3.0 | 6.0 | 0.00 | 0.00 | 0.00 | 44 | 1024.7 |
| 20260503192721 | 82 | 246 | 1.0 | 1.0 | 0.00 | 0.00 | 0.00 | 40 | 1024.7 |
| 20260503192217 | 82 | 141 | 3.0 | 5.0 | 0.00 | 0.00 | 0.00 | 39 | 1024.8 |
| 20260503191714 | 81 | 165 | 1.0 | 2.0 | 0.00 | 0.00 | 0.00 | 39 | 1024.8 |
| 20260503191211 | 80 | 207 | 3.0 | 3.0 | 0.00 | 0.00 | 0.00 | 40 | 1024.9 |
| 20260503190708 | 81 | 198 | 2.0 | 2.0 | 0.00 | 0.00 | 0.00 | 39 | 1025.1 |
| 20260503190204 | 81 | 123 | 1.0 | 2.0 | 0.00 | 0.00 | 0.00 | 43 | 1024.8 |
| 20260503185702 | 81 | 164 | 4.0 | 5.0 | 0.00 | 0.00 | 0.00 | 43 | 1024.8 |
| 20260503185156 | 81 | 195 | 5.0 | 6.0 | 0.00 | 0.00 | 0.00 | 42 | 1025.0 |
| 20260503184652 | 82 | 163 | 4.0 | 5.0 | 0.00 | 0.00 | 0.00 | 36 | 1025.0 |
| 20260503184148 | 82 | 209 | 1.0 | 1.0 | 0.00 | 0.00 | 0.00 | 44 | 1025.3 |
| 20260503183644 | 80 | 197 | 0.0 | 0.0 | 0.00 | 0.00 | 0.00 | 41 | 1025.4 |
| 20260503183142 | 80 | 144 | 2.0 | 3.0 | 0.00 | 0.00 | 0.00 | 44 | 1025.4 |
| 20260503182640 | 80 | 187 | 1.0 | 1.0 | 0.00 | 0.00 | 0.00 | 43 | 1025.6 |
| 20260503182139 | 81 | 148 | 3.0 | 3.0 | 0.00 | 0.00 | 0.00 | 41 | 1025.6 |
| 20260503181629 | 80 | 140 | 1.0 | 1.0 | 0.00 | 0.00 | 0.00 | 44 | 1025.7 |
| 20260503181126 | 79 | 173 | 1.0 | 3.0 | 0.00 | 0.00 | 0.00 | 44 | 1025.7 |
| 20260503180623 | 78 | 146 | 4.0 | 5.0 | 0.00 | 0.00 | 0.00 | 40 | 1025.9 |
| 20260503180121 | 79 | 133 | 2.0 | 2.0 | 0.00 | 0.00 | 0.00 | 43 | 1025.8 |
| 20260503175617 | 79 | 73 | 3.0 | 5.0 | 0.00 | 0.00 | 0.00 | 42 | 1026.0 |
| 20260503175114 | 79 | 125 | 1.0 | 1.0 | 0.00 | 0.00 | 0.00 | 41 | 1026.1 |
| 20260503174611 | 78 | 66 | 1.0 | 2.0 | 0.00 | 0.00 | 0.00 | 44 | 1026.3 |
| 20260503174109 | 79 | 99 | 1.0 | 2.0 | 0.00 | 0.00 | 0.00 | 46 | 1026.4 |
| 20260503173603 | 79 | 143 | 5.0 | 6.0 | 0.00 | 0.00 | 0.00 | 43 | 1026.5 |
| 20260503173100 | 80 | 125 | 1.0 | 1.0 | 0.00 | 0.00 | 0.00 | 41 | 1026.5 |
| 20260503172557 | 80 | 197 | 1.0 | 1.0 | 0.00 | 0.00 | 0.00 | 40 | 1026.6 |
| 20260503172054 | 79 | 164 | 1.0 | 1.0 | 0.00 | 0.00 | 0.00 | 43 | 1026.7 |
| 20260503171550 | 79 | 149 | 3.0 | 5.0 | 0.00 | 0.00 | 0.00 | 42 | 1026.5 |
| 20260503171048 | 79 | 163 | 1.0 | 1.0 | 0.00 | 0.00 | 0.00 | 41 | 1026.7 |
| 20260503170544 | 80 | 178 | 3.0 | 5.0 | 0.00 | 0.00 | 0.00 | 41 | 1026.5 |
| 20260503150937 | 73 | 168 | 3.0 | 3.0 | 0.00 | 0.00 | 0.00 | 52 | 1026.8 |
| 20260503150433 | 74 | 133 | 3.0 | 5.0 | 0.00 | 0.00 | 0.00 | 53 | 1026.8 |
| 20260503131326 | 67 | 228 | 2.0 | 2.0 | 0.00 | 0.00 | 0.00 | 68 | 1026.4 |
| 20260503130824 | 65 | 228 | 0.0 | 0.0 | 0.00 | 0.00 | 0.00 | 77 | 1026.0 |
| 20260503130321 | 64 | 228 | 0.0 | 0.0 | 0.00 | 0.00 | 0.00 | 82 | 1026.1 |
| 20260503110709 | 51 | 231 | 1.0 | 1.0 | 0.00 | 0.00 | 0.00 | 99 | 1025.3 |
| 20260503110206 | 51 | 231 | 1.0 | 1.0 | 0.00 | 0.00 | 0.00 | 99 | 1025.0 |
| 20260503100132 | 51 | 229 | 1.0 | 1.0 | 0.00 | 0.00 | 0.00 | 99 | 1024.6 |
| 20260503081522 | 53 | 229 | 0.0 | 0.0 | 0.00 | 0.00 | 0.00 | 99 | 1024.7 |
| 20260503081019 | 53 | 229 | 0.0 | 0.0 | 0.00 | 0.00 | 0.00 | 99 | 1024.8 |
| 20260503080515 | 53 | 229 | 0.0 | 0.0 | 0.00 | 0.00 | 0.00 | 99 | 1024.9 |
| 20260503072449 | 53 | 229 | 0.0 | 0.0 | 0.00 | 0.00 | 0.00 | 99 | 1024.9 |
| 20260503071946 | 53 | 229 | 0.0 | 0.0 | 0.00 | 0.00 | 0.00 | 99 | 1024.9 |
| 20260503071443 | 53 | 229 | 0.0 | 0.0 | 0.00 | 0.00 | 0.00 | 99 | 1025.0 |
| 20260503070939 | 53 | 229 | 0.0 | 0.0 | 0.00 | 0.00 | 0.00 | 99 | 1024.9 |
| 20260503070436 | 53 | 229 | 0.0 | 0.0 | 0.00 | 0.00 | 0.00 | 99 | 1025.0 |
| 20260503054850 | 54 | 229 | 0.0 | 0.0 | 0.00 | 0.00 | 0.00 | 98 | 1025.0 |
| 20260503054345 | 54 | 229 | 0.0 | 0.0 | 0.00 | 0.00 | 0.00 | 97 | 1024.9 |
| 20260503053844 | 53 | 229 | 0.0 | 0.0 | 0.00 | 0.00 | 0.00 | 97 | 1024.8 |
| 20260503053342 | 53 | 229 | 0.0 | 0.0 | 0.00 | 0.00 | 0.00 | 97 | 1024.8 |
| 20260503052837 | 53 | 229 | 0.0 | 0.0 | 0.00 | 0.00 | 0.00 | 97 | 1024.8 |
| 20260503052335 | 54 | 229 | 0.0 | 0.0 | 0.00 | 0.00 | 0.00 | 96 | 1024.9 |
| 20260503051831 | 54 | 229 | 0.0 | 0.0 | 0.00 | 0.00 | 0.00 | 96 | 1024.9 |
| 20260503051327 | 54 | 229 | 0.0 | 0.0 | 0.00 | 0.00 | 0.00 | 96 | 1024.9 |
| 20260503050824 | 54 | 229 | 0.0 | 0.0 | 0.00 | 0.00 | 0.00 | 96 | 1024.8 |
| 20260503050320 | 54 | 229 | 0.0 | 0.0 | 0.00 | 0.00 | 0.00 | 96 | 1025.0 |
| 20260503045818 | 54 | 229 | 0.0 | 0.0 | 0.00 | 0.00 | 0.00 | 96 | 1025.0 |
| 20260503045316 | 54 | 229 | 0.0 | 0.0 | 0.00 | 0.00 | 0.00 | 95 | 1024.9 |
| 20260503044812 | 54 | 229 | 0.0 | 0.0 | 0.00 | 0.00 | 0.00 | 95 | 1024.7 |
| 20260503044309 | 54 | 229 | 0.0 | 0.0 | 0.00 | 0.00 | 0.00 | 95 | 1024.7 |
| 20260503043806 | 54 | 229 | 0.0 | 0.0 | 0.00 | 0.00 | 0.00 | 95 | 1024.6 |
| 20260503043303 | 54 | 229 | 0.0 | 0.0 | 0.00 | 0.00 | 0.00 | 95 | 1024.6 |
| 20260503042759 | 55 | 229 | 0.0 | 0.0 | 0.00 | 0.00 | 0.00 | 95 | 1024.6 |
| 20260503042256 | 55 | 229 | 0.0 | 0.0 | 0.00 | 0.00 | 0.00 | 95 | 1024.8 |
| 20260503041751 | 55 | 229 | 0.0 | 0.0 | 0.00 | 0.00 | 0.00 | 94 | 1024.6 |
| 20260503041250 | 55 | 229 | 0.0 | 0.0 | 0.00 | 0.00 | 0.00 | 94 | 1024.6 |
| 20260503040747 | 55 | 229 | 0.0 | 0.0 | 0.00 | 0.00 | 0.00 | 94 | 1024.9 |
| 20260503040245 | 55 | 229 | 0.0 | 0.0 | 0.00 | 0.00 | 0.00 | 93 | 1024.9 |
| 20260503035741 | 55 | 229 | 0.0 | 0.0 | 0.00 | 0.00 | 0.00 | 93 | 1024.6 |
| 20260503035238 | 55 | 229 | 0.0 | 0.0 | 0.00 | 0.00 | 0.00 | 93 | 1024.4 |
| 20260503034736 | 55 | 229 | 0.0 | 0.0 | 0.00 | 0.00 | 0.00 | 92 | 1024.5 |
| 20260503034233 | 55 | 229 | 0.0 | 0.0 | 0.00 | 0.00 | 0.00 | 92 | 1024.5 |
| 20260503033730 | 55 | 229 | 0.0 | 0.0 | 0.00 | 0.00 | 0.00 | 92 | 1024.5 |
| 20260503033227 | 56 | 229 | 0.0 | 0.0 | 0.00 | 0.00 | 0.00 | 92 | 1024.4 |
| 20260503032726 | 56 | 229 | 0.0 | 0.0 | 0.00 | 0.00 | 0.00 | 91 | 1024.7 |
| 20260503032224 | 56 | 229 | 0.0 | 0.0 | 0.00 | 0.00 | 0.00 | 91 | 1024.6 |
| 20260503031720 | 56 | 229 | 0.0 | 0.0 | 0.00 | 0.00 | 0.00 | 91 | 1024.6 |
| 20260503031219 | 57 | 229 | 0.0 | 0.0 | 0.00 | 0.00 | 0.00 | 91 | 1024.4 |
| 20260503030714 | 57 | 229 | 1.0 | 1.0 | 0.00 | 0.00 | 0.00 | 91 | 1024.6 |
| 20260503030210 | 57 | 229 | 0.0 | 1.0 | 0.00 | 0.00 | 0.00 | 90 | 1024.4 |
| 20260503025708 | 57 | 230 | 0.0 | 0.0 | 0.00 | 0.00 | 0.00 | 89 | 1024.5 |
| 20260503025206 | 57 | 230 | 0.0 | 0.0 | 0.00 | 0.00 | 0.00 | 89 | 1024.6 |
| 20260503024701 | 57 | 230 | 0.0 | 0.0 | 0.00 | 0.00 | 0.00 | 88 | 1024.4 |
| 20260503024159 | 58 | 230 | 0.0 | 0.0 | 0.00 | 0.00 | 0.00 | 87 | 1024.3 |
| 20260503023656 | 58 | 230 | 0.0 | 0.0 | 0.00 | 0.00 | 0.00 | 87 | 1023.9 |
| 20260503023152 | 58 | 230 | 0.0 | 0.0 | 0.00 | 0.00 | 0.00 | 87 | 1024.0 |
| 20260503022649 | 58 | 230 | 0.0 | 0.0 | 0.00 | 0.00 | 0.00 | 85 | 1024.0 |
| 20260503022148 | 59 | 230 | 0.0 | 0.0 | 0.00 | 0.00 | 0.00 | 84 | 1023.9 |
| 20260503021645 | 59 | 230 | 0.0 | 0.0 | 0.00 | 0.00 | 0.00 | 84 | 1024.0 |
| 20260503021142 | 59 | 230 | 0.0 | 0.0 | 0.00 | 0.00 | 0.00 | 83 | 1024.0 |
| 20260503020639 | 59 | 230 | 0.0 | 0.0 | 0.00 | 0.00 | 0.00 | 81 | 1023.7 |
| 20260503020137 | 60 | 230 | 0.0 | 0.0 | 0.00 | 0.00 | 0.00 | 79 | 1023.6 |
| 20260503015633 | 60 | 230 | 0.0 | 0.0 | 0.00 | 0.00 | 0.00 | 79 | 1023.5 |
| 20260503015130 | 61 | 230 | 0.0 | 0.0 | 0.00 | 0.00 | 0.00 | 78 | 1023.6 |
| 20260503014626 | 62 | 230 | 0.0 | 0.0 | 0.00 | 0.00 | 0.00 | 76 | 1023.4 |
| 20260503014124 | 62 | 230 | 0.0 | 0.0 | 0.00 | 0.00 | 0.00 | 75 | 1023.5 |
| 20260503013621 | 63 | 230 | 0.0 | 0.0 | 0.00 | 0.00 | 0.00 | 73 | 1023.4 |
| 20260503013119 | 64 | 230 | 0.0 | 0.0 | 0.00 | 0.00 | 0.00 | 72 | 1023.4 |
| 20260503012616 | 64 | 230 | 0.0 | 0.0 | 0.00 | 0.00 | 0.00 | 70 | 1023.4 |
| 20260503012113 | 65 | 230 | 0.0 | 0.0 | 0.00 | 0.00 | 0.00 | 69 | 1023.1 |
| 20260503011609 | 65 | 230 | 0.0 | 0.0 | 0.00 | 0.00 | 0.00 | 68 | 1023.4 |
| 20260503011107 | 65 | 230 | 0.0 | 0.0 | 0.00 | 0.00 | 0.00 | 67 | 1023.4 |
| 20260503010602 | 66 | 230 | 0.0 | 0.0 | 0.00 | 0.00 | 0.00 | 67 | 1023.1 |
| 20260503010100 | 66 | 230 | 0.0 | 0.0 | 0.00 | 0.00 | 0.00 | 66 | 1023.2 |
| 20260503005557 | 66 | 230 | 0.0 | 0.0 | 0.00 | 0.00 | 0.00 | 65 | 1023.1 |
| 20260503005054 | 67 | 230 | 0.0 | 0.0 | 0.00 | 0.00 | 0.00 | 64 | 1023.0 |
| 20260503004550 | 67 | 230 | 0.0 | 0.0 | 0.00 | 0.00 | 0.00 | 64 | 1022.9 |
| 20260503004049 | 67 | 230 | 0.0 | 0.0 | 0.00 | 0.00 | 0.00 | 63 | 1022.9 |
| 20260503003545 | 68 | 230 | 0.0 | 0.0 | 0.00 | 0.00 | 0.00 | 62 | 1022.6 |
| 20260503003042 | 68 | 230 | 0.0 | 0.0 | 0.00 | 0.00 | 0.00 | 62 | 1022.7 |
| 20260503002539 | 69 | 230 | 0.0 | 0.0 | 0.00 | 0.00 | 0.00 | 61 | 1022.4 |
| 20260503002036 | 69 | 230 | 0.0 | 0.0 | 0.00 | 0.00 | 0.00 | 60 | 1022.6 |
| 20260503001532 | 70 | 230 | 0.0 | 0.0 | 0.00 | 0.00 | 0.00 | 58 | 1022.7 |
| 20260503001030 | 70 | 231 | 1.0 | 1.0 | 0.00 | 0.00 | 0.00 | 58 | 1022.3 |
| 20260503000527 | 70 | 73 | 2.0 | 2.0 | 0.00 | 0.00 | 0.00 | 56 | 1022.6 |
| 20260503000024 | 71 | 96 | 0.0 | 0.0 | 0.00 | 0.00 | 0.00 | 56 | 1022.4 |
| 20260502235520 | 72 | 96 | 0.0 | 0.0 | 0.00 | 0.00 | 0.00 | 53 | 1022.6 |
| 20260502235019 | 72 | 85 | 2.0 | 2.0 | 0.00 | 0.00 | 0.00 | 52 | 1022.5 |
| 20260502234514 | 72 | 296 | 2.0 | 2.0 | 0.00 | 0.00 | 0.00 | 52 | 1022.3 |
| 20260502234012 | 72 | 88 | 3.0 | 3.0 | 0.00 | 0.00 | 0.00 | 51 | 1022.2 |
| 20260502233507 | 73 | 154 | 1.0 | 2.0 | 0.00 | 0.00 | 0.00 | 52 | 1022.3 |
| 20260502233004 | 73 | 78 | 2.0 | 2.0 | 0.00 | 0.00 | 0.00 | 53 | 1022.5 |